Visibility
15.0 15.0 15.0 15.0 15.0 15.0 15.0 15.0 14.3 15.0 15.0 7.6 4.1 4.6 2.6 4.8 4.8 2.9 3.0 4.6 6.3 2.9 4.3 7.6 12.7 14.4 14.2 12.0 11.2 15.0 11.1 13.7 15.0 15.0 15.0 15.0 8.4 15.0 15.0 15.0 15.0 15.0 14.1
15.0 15.0 15.0 15.0 15.0 15.0 15.0 15.0 15.0 15.0 15.0 8.1 4.3 3.1 5.0 5.4 3.1 4.0 4.0 4.3 3.0 4.9 5.2 8.7 14.9 15.0 15.0 14.8 15.0 15.0 15.0 15.0 11.7 13.2 13.2 0.7 14.5 15.0 15.0 15.0 14.8 15.0 15.0
15.0 15.0 15.0 15.0 15.0 15.0 15.0 15.0 15.0 15.0 15.0 15.0 15.0 10.9 4.1 5.7 4.4 4.9 3.6 13.0 15.0 15.0 15.0 15.0 15.0 15.0 14.1 15.0 15.0 15.0 15.0 15.0 15.0 14.4 0.3 11.9 15.0 15.0 15.0 15.0 12.5 15.0 15.0
15.0 15.0 15.0 15.0 15.0 15.0 15.0 15.0 15.0 15.0 15.0 15.0 15.0 15.0 8.8 13.0 4.3 8.7 15.0 15.0 15.0 15.0 15.0 15.0 15.0 15.0 15.0 15.0 15.0 15.0 15.0 15.0 15.0 15.0 15.0 11.5 8.9 2.0 3.1 15.0 9.4 15.0 15.0
15.0 15.0 15.0 15.0 15.0 15.0 15.0 15.0 15.0 15.0 15.0 15.0 15.0 15.0 15.0 15.0 15.0 15.0 15.0 15.0 15.0 15.0 15.0 15.0 15.0 15.0 15.0 15.0 15.0 15.0 15.0 12.8 10.0 11.0 4.1 11.4 4.3 10.8 1.1 9.0 15.0 15.0 15.0
15.0 15.0 15.0 15.0 15.0 15.0 15.0 15.0 15.0 15.0 15.0 15.0 15.0 15.0 15.0 15.0 0.1 0.0 15.0 15.0 15.0 15.0 0.5 5.7 15.0 15.0 15.0 15.0 15.0 15.0 15.0 15.0 3.4 1.7 2.6 0.6 1.1 1.3 13.2 12.2 15.0 15.0 15.0
15.0 15.0 15.0 15.0 15.0 15.0 15.0 15.0 15.0 15.0 15.0 15.0 15.0 12.2 0.2 0.5 15.0 15.0 15.0 15.0 15.0 15.0 15.0 12.8 6.0 11.5 15.0 15.0 14.0 7.1 3.1 3.0 2.0 2.1 1.4 1.5 1.4 9.4 15.0 15.0 15.0 15.0 15.0
8.9 15.0 15.0 15.0 15.0 15.0 9.5 15.0 10.0 15.0 10.7 0.9 0.5 6.7 0.3 3.3 15.0 15.0 15.0 15.0 15.0 15.0 13.1 15.0 4.0 11.2 7.8 2.2 6.0 14.2 4.3 1.2 1.0 12.2 13.4 10.1 12.8 15.0 15.0 15.0 15.0 15.0 15.0
13.3 15.0 15.0 15.0 2.3 12.7 0.4 0.3 7.3 1.1 3.1 7.3 15.0 15.0 0.4 0.4 15.0 15.0 15.0 15.0 8.9 3.0 1.4 12.9 13.7 4.6 0.8 0.8 5.3 1.6 0.5 7.4 15.0 15.0 15.0 15.0 15.0 15.0 15.0 15.0 15.0 15.0 15.0
15.0 14.5 15.0 15.0 15.0 0.8 1.8 3.2 15.0 15.0 2.8 15.0 1.3 15.0 9.2 3.5 10.5 11.7 14.7 15.0 8.7 3.7 4.7 0.8 0.5 0.9 1.9 4.6 15.0 10.8 10.2 15.0 15.0 15.0 15.0 15.0 15.0 15.0 15.0 15.0 15.0 11.6 15.0
10.2 0.6 0.9 14.8 12.9 14.8 15.0 15.0 15.0 11.7 10.1 1.1 0.2 4.3 11.5 14.1 8.2 9.9 8.9 15.0 6.3 1.5 1.0 0.4 0.3 1.8 2.8 11.6 9.7 5.0 9.0 15.0 15.0 15.0 15.0 15.0 15.0 15.0 15.0 15.0 15.0 15.0 15.0
15.0 15.0 12.2 6.7 6.7 10.0 10.5 15.0 15.0 15.0 2.2 1.3 1.1 0.7 2.4 1.6 3.4 4.5 4.5 1.5 0.8 1.2 0.2 0.1 0.2 0.6 1.9 14.2 14.5 15.0 15.0 13.6 12.8 15.0 15.0 15.0 15.0 15.0 15.0 15.0 15.0 15.0 15.0
15.0 14.9 2.4 3.7 1.2 8.8 3.1 2.3 2.4 15.0 8.4 5.5 5.9 1.9 0.4 0.3 0.3 0.7 1.0 1.2 1.0 0.4 1.2 0.5 0.7 2.2 3.0 3.0 1.5 1.3 2.0 13.7 15.0 15.0 15.0 15.0 15.0 15.0 15.0 15.0 15.0 15.0 15.0
15.0 15.0 7.0 8.0 15.0 10.4 2.0 0.3 0.3 0.4 0.6 0.2 0.4 0.2 0.4 0.4 0.3 0.5 0.2 0.1 0.4 0.8 1.0 0.8 0.8 1.2 1.8 2.8 7.1 15.0 15.0 11.2 14.2 15.0 15.0 15.0 15.0 15.0 15.0 15.0 15.0 15.0 15.0
15.0 15.0 15.0 10.2 8.5 4.0 7.0 9.7 2.2 5.4 8.0 1.1 0.6 1.0 2.0 0.3 0.1 0.1 0.2 0.5 0.6 0.4 0.4 0.5 0.7 1.4 1.7 6.5 15.0 15.0 15.0 15.0 15.0 15.0 15.0 15.0 15.0 15.0 15.0 15.0 15.0 15.0 11.8
4.0 7.1 1.9 2.9 3.7 1.6 1.5 0.2 0.4 0.4 0.4 0.3 0.2 0.3 0.1 0.1 0.2 0.5 0.7 0.8 0.9 1.2 1.3 1.3 1.5 4.9 13.0 15.0 15.0 15.0 15.0 15.0 15.0 15.0 15.0 15.0 15.0 15.0 15.0 15.0 15.0 14.6 4.8
4.6 3.2 1.4 2.4 1.4 0.8 1.8 1.4 0.1 0.1 0.2 0.2 0.2 0.3 0.7 0.6 0.8 1.3 1.5 2.0 1.9 1.8 1.6 4.8 4.7 6.3 10.3 15.0 15.0 15.0 6.1 7.5 15.0 15.0 15.0 15.0 15.0 15.0 15.0 15.0 15.0 13.4 9.2
2.0 1.5 3.7 1.7 1.6 2.2 2.2 2.4 0.8 0.2 0.1 0.2 0.4 0.5 0.5 1.1 7.6 13.5 10.8 6.9 2.8 2.9 7.8 9.4 5.2 10.2 15.0 15.0 15.0 15.0 14.1 15.0 15.0 15.0 15.0 15.0 14.0 8.0 13.7 11.2 9.5 3.5 4.7
0.5 0.4 0.4 0.1 0.1 0.1 0.1 0.1 0.1 0.1 0.3 0.3 0.2 0.2 1.6 2.3 1.7 1.3 1.7 4.5 12.4 15.0 15.0 14.6 13.5 15.0 15.0 14.5 6.5 6.1 13.4 5.3 3.8 4.1 6.2 6.5 5.8 4.7 11.9 8.3 5.3 9.0 6.4
0.1 0.1 0.1 0.1 0.1 0.1 0.1 0.1 0.1 0.2 3.1 4.1 2.4 1.0 1.7 3.6 4.0 3.9 5.0 5.7 5.7 6.9 10.3 12.3 15.0 15.0 15.0 14.7 5.5 4.3 10.1 6.8 4.3 7.4 4.1 3.9 5.0 3.7 4.4 3.4 4.4 2.7 4.9
0.1 0.1 0.1 0.1 0.1 0.1 1.1 7.0 3.3 2.2 3.0 4.1 2.7 7.9 12.0 7.0 6.8 13.5 15.0 11.3 15.0 14.6 5.4 15.0 14.7 15.0 15.0 14.9 15.0 14.7 5.3 0.4 4.9 4.0 2.6 3.7 3.7 3.5 5.0 2.9 4.4 7.3 7.4
0.1 0.1 0.2 1.2 6.7 9.6 4.8 4.1 3.1 3.6 4.5 4.0 2.1 5.2 15.0 14.8 10.1 7.5 8.6 11.0 7.2 14.3 8.9 15.0 14.2 15.0 15.0 15.0 15.0 3.1 3.7 4.0 2.8 2.3 2.3 3.1 4.6 5.1 2.4 3.2 5.1 5.2 4.8
0.2 10.1 13.1 7.9 8.9 11.0 8.2 10.9 6.9 7.9 6.5 7.5 12.9 10.9 15.0 7.7 6.9 5.0 4.1 8.7 15.0 5.4 2.5 3.0 3.6 3.3 9.4 12.2 3.2 3.4 2.3 1.7 1.3 1.3 2.2 3.2 3.6 3.3 2.4 2.6 3.7 3.5 3.9
15.0 12.2 4.8 2.7 8.5 8.8 6.6 4.4 5.4 7.8 8.8 9.4 14.9 14.2 15.0 15.0 14.1 15.0 15.0 14.4 4.6 2.2 2.5 4.3 15.0 15.0 15.0 6.3 9.7 14.0 3.0 1.7 2.7 6.1 6.8 2.4 1.8 3.4 3.6 3.8 4.4 3.4 2.2
10.3 10.1 11.8 12.2 13.0 9.4 10.2 8.6 6.2 7.6 7.1 6.5 4.8 5.6 4.8 9.9 15.0 15.0 7.1 7.7 15.0 14.5 15.0 15.0 15.0 14.9 7.7 14.9 11.7 2.7 2.7 4.1 15.0 15.0 14.9 2.6 1.8 2.6 3.5 2.8 3.1 2.3 3.5
12.6 8.9 6.7 8.6 7.5 10.0 12.3 9.2 6.4 8.9 6.9 7.0 9.6 5.0 5.9 15.0 14.7 14.2 12.9 15.0 15.0 15.0 15.0 15.0 15.0 15.0 11.9 14.0 3.2 6.3 14.3 6.4 15.0 14.3 4.8 2.2 2.1 3.7 3.5 2.2 2.9 2.2 2.2